This is the latest recevied weather packets stored in our database for station/object N0NAI-13. If no packets are shown the sender has not sent any weather packets the latest 10 day(s).
| Time | Temp. | Humidity | Pressure | Rain* | Wind** | Luminosity | Snow |
|---|---|---|---|---|---|---|---|
| 1777609517 | 0.56° C | 85% | 1018.8 hPa | 0 mm | - | - | - |
| 1777608920 | 0.56° C | 84% | 1019 hPa | 0 mm | - | - | - |
| 1777608323 | 1.11° C | 82% | 1019 hPa | 0 mm | - | - | - |
| 1777607725 | 1.11° C | 82% | 1018.8 hPa | 0 mm | - | - | - |
| 1777607128 | 1.67° C | 82% | 1018.9 hPa | 0 mm | - | - | - |
| 1777606531 | 1.67° C | 80% | 1018.9 hPa | 0 mm | - | - | - |
| 1777605916 | 1.67° C | 79% | 1019 hPa | 0 mm | - | - | - |
| 1777605318 | 2.22° C | 76% | 1019.1 hPa | 0 mm | - | - | - |
| 1777604721 | 2.22° C | 76% | 1018.9 hPa | 0 mm | - | - | - |
| 1777604124 | 2.78° C | 75% | 1019 hPa | 0 mm | - | - | - |
| 1777603527 | 2.78° C | 73% | 1019 hPa | 0 mm | - | - | - |
| 1777602930 | 3.33° C | 72% | 1019 hPa | 0 mm | - | - | - |
| 1777602333 | 3.33° C | 71% | 1018.9 hPa | 0 mm | - | - | - |
| 1777601718 | 3.89° C | 70% | 1018.8 hPa | 0 mm | - | - | - |
| 1777586124 | 10.56° C | 48% | 1017.7 hPa | 0 mm | - | - | - |
| 1777585527 | 10.56° C | 49% | 1017.8 hPa | 0 mm | - | - | - |
| 1777584930 | 10.56° C | 47% | 1017.9 hPa | 0 mm | - | - | - |
| 1777583717 | 10.56° C | 48% | 1017.9 hPa | 0 mm | - | - | - |
| 1777582523 | 10.56° C | 49% | 1017.9 hPa | 0 mm | - | - | - |
| 1777581926 | 10.56° C | 49% | 1018 hPa | 0 mm | - | - | - |
| 1777580117 | 11.67° C | 47% | 1018.1 hPa | 0 mm | - | - | - |
| 1777579519 | 12.78° C | 47% | 1018.1 hPa | 0 mm | - | - | - |
| 1777578923 | 11.11° C | 48% | 1018.3 hPa | 0 mm | - | - | - |
| 1777578326 | 11.11° C | 50% | 1018.3 hPa | 0 mm | - | - | - |
| 1777577729 | 10.56° C | 51% | 1018.3 hPa | 0 mm | - | - | - |
* Rain latest hour (hover to see other rain measurements)
** Current wind speed in m/s (hover to see current wind gust speed)